Regional Weather Roundup
Issued by NWS

Home | Current Version | Previous Version | Graphics & Text | Print | Product List | Glossary On
Versions: 1 2 3 4 5 6 7 8 9 10 11 12 13 14 15 16 17 18 19 20 21 22 23 24 25 26 27
000
ASUS45 KBOU 231410
RWRCO

WEATHER ROUNDUP FOR COLORADO
NATIONAL WEATHER SERVICE DENVER/BOULDER CO
700 AM MST TUE JAN 23 2018

NOTE: "FAIR" INDICATES FEW OR NO CLOUDS BELOW 12000 FEET WITH NO
SIGNIFICANT WEATHER AND/OR OBSTRUCTIONS TO VISIBILITY.

COZ001>005-013-030-031-231500-
...NORTHWEST COLORADO...

CITY           SKY/WX    TMP DP  RH WIND       PRES   REMARKS
CRAIG          FAIR       1  -4  79 CALM      30.31R
HAYDEN         CLOUDY    13  10  88 CALM      30.30R
MEEKER         FAIR       5   2  87 NE7       30.30R WCI  -7
RABBIT EARS PA LGT SNOW N/A N/A N/A W13G24    30.10S VSB 3/4
STEAMBOAT SPGS CLOUDY    13  10  90 CALM      30.26S
WALDEN         FAIR       9   3  78 W3        30.18S
$$

COZ006>008-011-231500-
...WEST CENTRAL VALLEYS...

CITY           SKY/WX    TMP DP  RH WIND       PRES   REMARKS
GRAND JUNCTION FAIR      11   9  92 E5        30.35R WCI   3
MONTROSE       FAIR      12   8  84 S6        30.35S WCI   3
EAGLE          FAIR      10   7  87 E6        30.32R WCI   0
RIFLE          MOCLDY    20  16  84 CALM      30.34R
DELTA          FAIR      18  12  77 CALM      30.35S
NUCLA          FAIR      10   5  79 E8        30.35S WCI  -1
$$

COZ017>023-064>068-231500-
...SOUTHWEST COLORADO...

CITY           SKY/WX    TMP DP  RH WIND       PRES   REMARKS
DURANGO        FAIR       0  -1  96 E3        30.25R
CORTEZ         FAIR       7   3  84 NE7       30.28R WCI  -5
PAGOSA SPRINGS FAIR       1  -3  85 CALM      30.22S
TELLURIDE      FAIR      10   4  77 SE6       30.24S WCI   0
WOLF CREEK PAS FAIR      10 -11  37 W6        30.19S WCI   1
$$

COZ009-010-012-014-032>034-037-058>063-231500-
...CENTRAL COLORADO...

CITY           SKY/WX    TMP DP  RH WIND       PRES   REMARKS
ASPEN          FAIR      11   6  81 CALM      30.23R
BUENA VISTA    FAIR       9   1  69 E5        30.18R WCI   1
COPPER MTN     NOT AVBL
BERTHOUD PASS  LGT SNOW   0 -11  60 NW29G36   30.04R VSB 3/4 WCI -26
COTTONWOOD PAS FAIR      21   7  53 W17G28    30.12S WCI   7
GUNNISON       FAIR      -6 -11  79 E3        30.31S
KREMMLING      CLOUDY    18  12  79 CALM      30.26S
LEADVILLE      CLOUDY     9   3  77 E5        30.15R WCI   1
MONARCH PASS   CLOUDY     3   0  85 W21G32    30.17S WCI -18
SALIDA         FAIR      11   4  72 CALM      30.25F
SUNLIGHT       FLURRIES   7   3  85 W3        30.22S
WILKERSON PASS   N/A      9  -2  61 NW9G30    30.08S WCI  -5
$$

COZ069>075-231500-
...SAN LUIS VALLEY/SANGRE DE CRISTO MOUNTAINS...

CITY           SKY/WX    TMP DP  RH WIND       PRES   REMARKS
ALAMOSA        FAIR     -10 -15  78 S5        30.23F WCI -22
DEL NORTE      FAIR       8  -5  54 CALM      30.22S
LA VETA PASS   FAIR       7   0  72 SW29G38     N/A  WCI -16
SAGUACHE       FAIR       9   1  72 NW6       30.22S WCI  -1
$$

COZ035-036-038>040-231500-
...NORTHERN COLORADO FRONT RANGE...

CITY           SKY/WX    TMP DP  RH WIND       PRES   REMARKS
DENVER INTL AP FAIR      22   7  52 W5        30.15R WCI  16
DMNS CITY PARK NOT AVBL
AURORA         PTCLDY    23   7  51 SW8       30.15S WCI  14
FRONT RANGE AP   N/A     25   9  50 SW8       30.16S WCI  16
ERIE MUNI ARPT FAIR      13   8  78 CALM      30.22S
BOULDER MUN AP FAIR      32   5  32 NW8       30.15S WCI  25
CENTENNIAL     MOCLDY    22   6  50 W3        30.15R
BROOMFIELD     PTCLDY    30   7  37 NW8       30.16R WCI  23
FORT COLLINS   FAIR      19  12  74 SW7       30.17R WCI  10
LONGMONT       FAIR      16   8  72 NW5       30.20R WCI   9
$$

COZ041-046-047-076>085-087-088-231500-
...PIKES PEAK/PALMER DIVIDE AND SOUTHERN FOOTHILLS...

CITY           SKY/WX    TMP DP  RH WIND       PRES   REMARKS
COLO. SPRINGS  FAIR      19   5  54 CALM      30.16R
A. F. ACADEMY  FAIR      18   2  49 NE3       30.14R
SCHRIEVER AFB  FAIR      18   3  53 CALM      30.16S
CHEYENNE MTN   FAIR      25   3  39 NW8       30.09R WCI  16
ELLICOTT         N/A    N/A N/A N/A CALM        N/A
FALCON         FAIR      17   3  53 NW10      30.14S WCI   5
FORT CARSON    FAIR      16   5  62 NW10      30.15R WCI   4
LIMON          FAIR      11   4  73 NW3       30.18R
MONUMENT HILL  FAIR      14   1  57 SW7       30.15R WCI   4
CANON CITY     FAIR      23   9  54 W10       30.16S WCI  12
WALSENBURG     NOT AVBL
TRINIDAD       FAIR      13   3  64 SW3       30.18S
$$

COZ042>045-048>051-090-091-231500-
...NORTHEAST COLORADO...

CITY           SKY/WX    TMP DP  RH WIND       PRES   REMARKS
GREELEY ARPT   FAIR       9   7  92 NE5       30.20R WCI   1
AKRON          FAIR      19  11  70 NW12      30.16R WCI   7
BURLINGTON     FAIR      16   9  74 W10       30.17R WCI   4
WRAY           MOCLDY    23  18  80 W15       30.17R WCI  10
YUMA           FAIR      19  12  73 NW10      30.17S WCI   8
STERLING       MOCLDY    27  19  74 NW10      30.17R WCI  17
HOLYOKE        FAIR      32  23  69 NW13      30.16R WCI  22
FORT MORGAN    FAIR      17  11  74 W10       30.18S WCI   5
$$

COZ086-089-092>099-231500-
...SOUTHEAST COLORADO...

CITY           SKY/WX    TMP DP  RH WIND       PRES   REMARKS
PUEBLO         FAIR      13   8  81 CALM      30.18S
LA JUNTA       FAIR      19   8  62 S5        30.20S WCI  12
LAMAR          FAIR       4  -1  80 W3        30.20S
SPRINGFIELD      N/A      9   4  80 NW6       30.19R WCI  -1
$$




USA.gov is the U.S. government's official web portal to all federal, state and local government web resources and services.